カタログに戻る

SL-8 R/B

運用中LEO
NORAD 11112·ROCKET BODY·🇷🇺 Russia

打ち上げ Nov 16, 1978 から Plesetsk Cosmodrome

Loading…

次のパス (今後24時間)

TLE

最新Source: Space-Track

元期: Sep 14, 2026, 10:26 UTC

1 11112U 78105B   26257.43515037  .00000128  00000-0  49974-4 0  9995
2 11112  74.0283  69.5169 0032273 125.9497 234.4659 14.38848733504676

AllMySatでSL-8 R/Bをリアルタイム追跡

Download on the App Store